RH
94 105 97 102 105 98 99 100 90 87 96 100 95 91 93 94 97 102 101 102 107 106 94 83 89 99 102 99 90 84 84 88 83 73 71 72 76 83 86 84 76 69 67 69 70 68 67 63 60 61 60 59 54 54 54 46 48 52 62 90 99 83 74 76 81 89 101 101 93 87 81 85 93 94 91 90 94 100 104 88 55 37 35 41 49
76 102 102 90 91 95 97 98 97 97 99 99 93 92 90 86 94 105 102 100 102 104 99 88 89 98 102 101 98 94 90 87 81 72 69 68 69 75 80 80 75 70 67 68 68 68 68 64 62 62 61 58 53 55 53 45 50 55 61 74 80 80 78 80 83 86 94 95 88 89 93 98 101 97 95 100 102 97 90 70 42 32 38 47 50
62 84 106 91 74 83 98 101 100 99 99 103 98 88 79 73 87 104 102 99 100 103 103 98 98 101 101 101 100 99 98 94 88 77 70 69 71 73 77 79 79 78 73 69 69 71 72 67 64 63 58 54 52 53 51 46 52 58 61 64 68 75 78 79 80 80 90 97 94 98 101 101 101 100 101 102 92 75 62 48 34 34 44 51 47
61 64 95 103 82 75 89 98 96 91 87 93 97 85 75 75 90 103 102 101 103 103 106 102 97 96 97 100 101 100 100 100 98 88 79 77 80 83 85 85 87 88 82 77 76 75 75 71 66 60 53 52 52 50 48 49 54 59 63 69 74 81 84 82 80 79 85 92 95 97 99 100 100 102 99 87 68 51 43 36 31 40 52 53 44
68 57 73 102 103 81 75 84 88 87 82 86 99 97 90 92 100 105 101 102 107 106 106 100 87 82 86 91 96 100 101 100 101 98 93 91 94 97 98 98 99 98 92 86 83 80 76 70 61 53 52 55 54 50 49 52 59 64 69 81 89 93 93 86 83 82 80 84 92 96 99 100 100 102 92 71 53 41 35 32 33 48 57 51 39
77 62 58 85 106 89 71 75 78 84 91 95 103 105 103 101 101 104 102 102 110 108 103 100 87 76 83 87 84 91 99 101 101 102 101 100 99 102 105 106 106 104 100 91 84 79 71 61 51 49 55 58 56 54 52 55 63 67 78 93 99 98 93 85 83 82 79 84 90 91 95 101 106 97 75 58 45 33 32 32 39 55 58 47 34
79 71 58 68 92 90 77 76 74 80 96 102 102 101 104 102 98 101 103 101 105 105 100 104 97 79 80 87 83 88 97 101 103 102 103 102 100 101 103 104 104 102 97 88 78 68 59 51 47 51 60 63 62 59 55 58 65 71 86 100 100 93 85 79 79 77 76 82 85 81 83 91 92 71 50 45 36 28 32 36 46 60 58 45 33
65 71 68 67 79 85 80 76 76 84 95 100 101 100 100 101 100 100 103 101 100 103 104 107 104 85 73 75 82 94 102 103 106 106 105 104 102 103 102 98 96 93 88 79 68 59 53 50 51 58 66 69 69 66 60 62 69 77 90 98 92 82 79 78 76 74 76 79 78 74 67 61 53 43 41 41 31 28 35 40 51 62 59 48 37
50 57 66 71 76 83 86 79 75 84 97 103 103 103 101 100 102 102 101 99 97 102 104 96 91 86 78 76 80 92 104 106 108 110 109 109 107 105 102 95 90 88 83 73 63 57 55 55 58 64 71 76 76 71 67 69 75 82 89 92 87 80 80 78 73 73 77 77 73 65 52 39 32 35 40 36 29 31 40 50 59 61 60 55 46
39 43 51 62 69 78 92 95 81 74 89 106 105 101 103 101 101 103 99 96 97 96 93 86 85 87 88 92 88 84 90 99 107 111 109 108 107 105 101 95 90 86 79 69 59 56 58 61 66 72 77 82 82 76 74 77 81 87 90 89 87 83 79 75 70 72 74 74 68 54 40 30 28 33 35 34 34 36 45 61 67 64 62 58 54
31 36 39 47 56 65 79 95 93 77 76 96 106 100 103 103 98 102 99 92 91 91 87 83 86 89 88 92 88 76 73 80 95 107 106 100 100 102 102 97 91 84 73 65 58 56 61 67 74 81 84 87 85 81 83 86 86 89 90 85 82 79 75 70 68 70 71 69 61 44 31 26 27 31 34 36 39 41 51 66 71 70 67 61 59
27 33 35 36 43 51 57 70 86 90 79 83 98 100 104 107 98 98 102 93 81 78 81 84 86 87 87 90 86 78 74 72 78 93 100 96 92 94 99 97 89 78 70 66 62 62 69 76 81 85 85 87 87 84 87 91 90 88 84 78 77 76 71 69 69 69 69 63 49 34 26 25 25 29 36 40 41 47 57 65 69 71 70 66 63
25 29 32 30 30 35 42 48 60 79 80 76 89 97 99 104 100 97 101 100 88 76 80 92 96 92 92 94 87 78 76 72 68 78 89 90 88 89 91 88 80 73 72 72 71 74 80 84 88 85 81 84 85 85 87 90 91 87 80 75 75 74 71 69 70 68 63 51 36 27 25 24 24 32 42 44 46 54 61 62 64 68 72 72 68
25 26 29 30 28 26 33 38 41 55 65 66 78 88 88 93 100 101 99 101 99 88 88 99 103 99 97 96 89 76 71 69 66 71 79 80 79 80 80 77 73 72 77 80 81 83 87 92 94 82 74 78 81 83 86 90 91 85 78 76 73 71 70 68 68 64 53 39 27 24 24 25 31 41 46 47 53 62 63 63 64 66 70 73 71
27 27 29 30 31 28 28 31 32 39 47 50 58 68 74 81 89 93 95 101 104 98 99 104 101 100 99 96 92 80 67 64 66 72 79 77 72 72 71 71 74 75 81 88 87 87 93 101 99 81 68 72 78 82 84 87 89 84 78 77 74 71 68 66 64 56 41 29 24 24 26 33 43 48 49 53 61 63 62 65 70 70 73 75 68
31 28 29 30 31 29 28 28 27 29 34 39 41 46 59 72 81 85 88 96 103 103 107 106 99 100 101 98 99 93 74 59 60 70 80 81 76 75 72 72 77 80 86 91 89 91 98 105 101 81 66 70 77 81 84 84 84 83 80 78 75 71 67 63 56 44 32 26 24 26 35 46 52 52 55 60 62 61 61 65 69 71 73 69 57
39 32 29 31 30 28 28 28 27 26 27 31 33 33 41 55 69 81 87 93 99 104 108 105 97 98 101 98 100 104 92 72 63 66 73 76 78 81 79 75 77 80 86 90 89 94 99 101 99 82 65 68 76 82 85 83 80 81 81 79 76 70 63 55 44 34 28 24 26 35 47 54 54 55 59 61 62 62 59 58 63 67 61 51 44
47 40 32 30 29 28 27 27 28 26 24 27 29 27 30 38 48 62 75 87 96 102 105 103 99 99 102 102 101 105 105 92 78 70 67 67 73 82 86 81 77 77 84 89 89 92 94 96 95 80 65 67 77 84 86 85 81 78 78 78 74 66 55 43 34 29 26 25 34 47 55 55 54 57 60 61 64 62 55 54 58 59 53 46 44
50 49 43 35 31 29 27 26 27 26 23 24 26 26 26 26 31 40 50 64 81 95 103 103 100 99 101 101 99 99 101 96 86 78 73 69 70 78 84 82 76 74 80 88 90 88 90 94 94 82 69 70 81 88 89 89 84 76 73 73 69 57 42 33 30 27 25 32 46 54 56 54 53 56 60 62 62 57 54 55 52 51 53 53 55
50 54 54 46 38 35 32 28 26 26 24 22 24 32 37 31 26 28 34 42 55 73 92 99 99 100 103 105 103 101 98 95 92 86 82 79 76 80 85 82 76 72 75 84 90 87 87 93 95 85 71 72 85 92 91 90 85 73 66 64 60 45 31 29 29 26 30 44 55 54 52 52 51 54 59 64 62 55 55 57 54 53 57 60 63
50 53 57 55 48 42 39 34 30 28 27 25 23 30 40 37 25 23 29 31 34 46 61 73 77 80 87 93 94 97 100 101 97 91 83 79 78 86 91 83 73 69 70 77 87 89 89 93 94 83 67 67 81 90 90 89 84 72 60 54 48 33 26 29 27 28 41 54 56 53 51 51 51 54 59 62 61 60 65 69 64 62 64 66 67
55 55 55 56 53 47 42 37 32 29 27 28 28 27 31 30 25 23 24 24 26 28 31 39 44 44 49 53 58 76 98 100 89 83 78 72 73 83 90 81 71 66 63 69 81 85 83 84 81 66 50 51 67 80 85 86 82 71 57 46 36 26 27 30 27 37 54 57 54 53 53 51 51 55 60 60 60 66 78 82 77 74 73 70 71
54 55 53 53 54 52 49 42 35 32 28 27 28 27 27 31 32 28 22 22 24 23 24 27 26 24 24 24 35 65 96 100 84 70 64 57 57 70 78 69 58 52 47 49 59 61 57 56 56 47 34 35 50 64 75 80 74 64 51 37 27 26 30 29 32 49 59 56 54 54 53 54 53 54 59 62 67 78 90 92 86 81 77 72 73
46 49 51 53 54 55 55 51 43 37 32 31 30 29 27 30 33 29 23 25 26 26 26 21 26 46 53 51 65 85 100 102 82 55 42 37 37 44 49 44 36 32 30 29 31 33 33 34 38 35 27 29 39 50 64 70 61 51 42 28 23 29 30 31 43 58 59 55 55 56 57 57 55 55 58 67 80 92 99 96 87 80 73 68 71
37 42 48 54 56 55 56 56 51 43 37 34 33 33 31 27 28 27 24 25 26 30 30 18 30 74 97 95 100 104 104 93 61 33 27 26 25 26 26 25 24 22 22 23 23 25 26 27 30 29 25 28 35 42 54 60 49 41 33 23 25 30 30 38 55 61 58 56 57 59 61 59 57 57 60 70 86 93 93 86 77 72 64 58 65
29 33 42 51 54 54 55 55 54 49 42 37 34 35 34 29 27 26 24 24 23 26 29 21 28 68 101 108 106 107 105 80 38 22 26 23 21 24 22 21 22 22 22 22 23 25 26 26 28 28 25 27 31 36 46 49 40 32 26 23 28 31 34 49 62 60 56 57 59 61 63 61 60 62 68 80 89 84 80 77 69 60 54 58 76
27 28 35 44 48 49 51 54 55 53 48 42 38 37 37 33 29 27 25 24 22 22 24 20 29 59 85 100 109 107 88 56 30 26 25 21 21 21 20 21 21 22 23 22 23 26 26 27 28 28 26 25 27 31 37 41 34 26 23 25 29 33 42 57 62 59 56 57 60 62 63 62 63 72 83 88 83 74 73 70 57 53 63 80 97
27 29 33 39 44 45 47 49 52 54 51 46 42 39 39 37 32 29 27 25 24 25 21 19 44 79 95 103 110 90 52 39 52 52 31 22 25 21 19 22 22 23 24 23 25 25 26 27 28 29 27 25 26 29 32 35 30 23 23 27 31 38 51 62 61 58 57 57 59 61 63 64 67 77 85 80 72 70 66 57 53 69 90 100 102
26 28 31 36 40 41 41 44 46 48 48 49 46 42 40 39 35 31 29 27 25 26 22 18 39 71 83 80 72 50 27 38 75 87 62 38 29 23 22 21 21 25 25 23 26 25 26 28 28 29 28 26 27 29 31 32 27 24 26 28 32 44 58 64 61 58 57 56 56 58 63 66 68 74 76 72 68 63 55 57 74 91 94 87 83
23 25 26 31 35 36 36 38 40 42 45 49 50 47 42 39 37 33 30 28 27 27 27 22 23 31 36 33 28 27 26 31 57 88 90 71 49 33 26 24 23 26 26 25 26 26 27 29 28 28 28 26 28 29 30 30 26 25 28 28 34 51 63 65 62 59 57 54 52 54 61 69 71 73 76 73 65 57 59 78 92 83 68 62 61
17 21 23 24 28 32 34 35 37 38 40 45 49 50 46 40 37 34 31 29 28 29 30 28 25 23 23 23 22 24 28 34 51 69 78 84 73 44 25 25 27 28 28 28 29 29 31 31 29 29 27 25 28 28 29 30 26 25 28 30 39 57 67 66 63 60 55 52 51 54 61 70 73 75 79 76 67 64 77 92 84 60 50 53 50
10 17 22 23 24 28 31 34 36 35 36 39 42 47 49 45 39 35 32 31 29 30 32 29 28 28 26 27 26 23 26 40 56 61 67 81 74 42 25 28 30 31 32 30 32 34 35 34 31 30 29 27 28 28 28 27 25 26 28 32 45 62 68 68 65 59 53 52 52 58 69 76 75 76 79 79 78 81 88 89 72 49 48 55 53
7 10 17 21 23 24 26 29 32 33 33 33 35 40 45 47 44 37 34 32 30 29 30 30 30 30 29 29 28 27 26 28 46 73 93 92 62 31 28 33 32 35 35 32 37 40 38 37 36 33 32 30 29 29 28 26 25 26 28 35 49 62 69 71 65 56 53 52 53 67 83 84 81 85 89 90 94 94 91 87 69 48 50 64 71
8 7 9 15 19 21 22 24 27 31 32 32 32 35 39 45 47 42 36 33 32 30 29 30 31 30 32 33 30 29 27 26 49 89 111 99 63 33 32 37 35 37 37 35 41 45 41 40 40 36 35 33 32 30 27 26 26 25 29 39 52 62 69 70 62 54 53 53 56 75 90 84 77 84 92 97 101 96 92 89 70 50 57 76 86
7 8 7 9 12 16 19 21 25 29 31 33 33 33 35 41 45 45 40 35 33 31 29 30 33 33 35 36 33 30 28 30 56 92 111 105 76 42 33 41 41 38 38 39 42 46 45 44 42 39 37 36 34 32 28 27 26 25 30 43 55 62 67 67 59 52 52 54 62 78 84 75 71 80 87 89 90 93 97 92 68 49 60 82 91
5 7 8 7 9 12 15 18 22 25 28 31 31 30 32 35 40 43 43 39 35 33 30 29 31 34 36 37 35 31 27 27 43 76 104 108 89 60 43 42 44 42 39 38 42 48 48 46 43 39 38 39 37 33 30 28 26 25 32 47 58 62 65 66 59 52 52 56 64 72 72 69 73 82 84 80 83 96 100 82 56 47 59 82 92
4 5 7 8 7 8 10 14 18 22 26 28 30 32 31 31 34 38 41 42 40 36 32 29 31 35 37 39 38 32 30 27 29 58 97 109 102 91 69 46 42 46 42 38 43 49 48 45 42 40 40 41 39 35 31 29 28 26 34 50 60 62 64 66 59 53 53 56 62 67 68 71 79 81 77 79 90 96 81 59 52 60 73 90 99
5 5 6 7 7 7 7 10 15 19 22 26 30 33 33 33 34 34 36 40 39 37 35 31 31 35 36 39 40 34 34 32 29 53 96 110 105 101 79 50 44 48 43 40 44 46 46 45 43 42 43 43 41 38 33 30 29 27 35 52 62 62 64 66 60 54 53 56 61 65 68 78 89 86 74 79 91 85 69 66 78 90 96 100 103
5 5 6 7 7 6 5 7 11 15 18 22 25 29 34 36 35 33 33 34 34 36 38 34 32 35 36 38 40 36 35 34 30 49 88 109 109 98 68 42 42 47 43 42 43 44 47 46 44 44 44 45 45 40 34 32 30 28 35 51 61 61 64 67 61 54 53 56 60 64 74 90 102 92 75 78 90 88 85 92 97 100 103 103 104
6 5 6 7 7 7 7 6 8 12 16 19 21 24 32 36 36 34 32 32 31 31 34 36 35 35 36 37 37 38 39 35 34 55 90 112 113 97 69 48 44 43 43 43 43 46 47 46 45 45 45 47 48 42 36 34 32 29 36 49 57 61 65 67 60 53 52 55 59 71 88 102 103 94 85 89 99 99 98 97 94 97 103 101 101
7 5 6 8 8 8 8 7 7 11 14 17 19 22 29 34 37 36 32 32 31 29 31 35 34 34 38 38 36 39 38 31 38 62 88 98 94 83 79 76 61 45 42 43 44 48 49 46 45 46 46 49 49 45 39 36 32 31 36 47 57 62 66 64 57 52 52 56 63 80 100 104 100 99 99 100 102 102 100 97 92 95 102 99 97
8 7 7 8 9 9 8 7 8 9 12 16 19 22 26 31 35 38 37 34 31 29 29 33 39 44 40 33 40 56 52 40 50 70 81 90 94 86 83 84 68 48 41 41 44 49 50 48 48 47 47 50 51 47 42 38 34 32 37 50 61 64 64 62 57 53 53 56 65 85 103 104 100 102 102 100 101 101 100 99 94 94 99 101 97
9 9 8 8 9 10 9 7 7 7 9 14 19 23 26 28 33 39 40 36 33 31 27 28 37 49 48 44 64 90 87 73 82 92 88 92 103 102 100 99 80 54 40 37 42 49 51 50 51 50 48 51 53 50 45 40 36 33 41 56 65 65 65 63 59 55 52 54 66 88 103 102 99 101 101 100 103 101 98 100 100 98 100 100 93
10 10 9 9 9 10 10 9 7 8 8 10 17 23 25 28 35 38 37 37 36 32 28 26 30 39 49 56 68 85 95 96 100 99 91 87 91 100 110 109 91 69 53 41 38 45 52 54 54 53 50 52 55 54 47 42 38 37 44 57 65 69 70 67 61 55 51 55 70 92 104 102 98 100 101 102 102 98 96 100 102 101 102 97 83
9 10 11 11 10 10 11 11 8 8 9 9 15 22 28 32 36 35 34 37 37 33 31 31 28 30 40 51 59 72 92 102 93 81 79 86 98 112 116 102 86 79 72 58 47 47 54 57 58 56 52 53 58 56 49 45 41 40 46 57 66 71 74 71 65 59 54 58 75 96 108 103 98 101 103 101 97 95 98 101 100 103 105 93 76
16 17 15 12 11 10 10 12 11 9 9 10 13 20 27 31 30 30 34 38 38 38 38 33 31 36 43 44 45 52 69 87 92 88 87 89 95 100 91 70 57 56 55 52 50 51 54 58 60 58 55 56 60 59 51 47 45 43 47 57 67 73 75 74 69 61 56 60 76 99 110 102 95 101 103 94 87 92 101 101 99 103 104 94 84
19 21 20 16 14 12 10 12 12 10 10 10 12 17 23 26 26 30 40 49 48 46 45 38 38 50 57 51 44 46 61 85 99 101 101 101 96 86 69 48 36 35 37 41 47 51 56 61 62 61 59 57 60 61 55 49 47 46 47 56 69 75 75 74 68 61 61 66 78 100 109 97 87 92 91 80 79 91 101 101 99 101 102 99 97
26 28 31 25 16 13 14 15 14 17 24 21 15 15 19 24 30 33 47 72 80 68 55 43 37 51 73 81 79 78 84 92 93 88 92 104 108 100 83 62 46 38 36 40 44 49 57 62 63 61 59 58 61 63 59 53 50 48 47 56 70 75 73 71 68 63 63 68 78 97 105 96 90 95 92 84 87 97 100 99 100 101 102 101 98
47 42 45 41 28 16 14 15 19 31 41 34 22 18 20 27 34 34 49 80 92 78 62 45 33 52 89 105 99 94 93 94 95 93 92 97 105 104 95 88 80 61 40 36 41 47 52 56 58 59 58 59 63 64 59 55 53 51 50 57 68 74 72 69 68 65 64 68 82 100 106 99 97 101 98 92 95 100 100 99 102 105 103 97 89
66 53 49 49 42 28 20 21 25 31 31 23 16 15 18 27 36 42 54 71 77 73 65 45 37 64 100 105 97 98 100 97 98 99 94 92 98 101 97 100 103 86 56 39 39 44 48 51 53 56 58 60 63 62 60 59 57 55 55 58 63 70 71 68 66 65 64 72 87 102 105 101 100 102 100 98 99 99 97 99 103 105 101 94 89
90 80 68 60 55 51 51 57 61 55 46 42 40 36 32 30 31 39 48 48 52 64 58 37 43 80 101 96 94 100 102 98 97 98 96 92 93 96 97 100 106 100 85 67 48 40 44 48 47 49 53 58 62 63 62 63 61 59 58 58 60 64 65 64 63 62 66 78 92 100 101 100 101 101 100 99 97 93 92 97 104 104 99 96 96
Wind_Speed
71 73 74 74 73 71 71 73 72 72 73 72 69 69 67 60 56 54 53 52 51 52 52 51 50 48 46 46 47 47 47 47 48 48 47 47 46 46 46 48 48 48 48 48 48 49 49 49 49 49 49 49 47 43 39 37 35 30 28 29 30 32 33 33 35 36 37 39 40 40 41 41 41 42 44 44 43 43 46 51 54 53 48 42 38
73 73 74 75 74 71 69 70 71 70 71 70 69 70 69 65 60 55 54 54 52 52 51 51 51 49 48 47 47 47 48 48 49 49 48 48 48 48 48 48 49 49 49 49 50 50 51 50 50 50 50 48 46 43 39 38 35 29 27 29 31 33 33 33 36 38 38 39 39 40 40 40 40 41 41 41 43 46 50 53 53 49 43 38 35
75 72 72 74 75 73 71 70 70 70 69 68 69 69 67 63 60 57 56 56 56 54 53 52 51 51 50 49 48 47 48 49 49 50 50 49 49 49 49 49 49 50 50 50 50 50 51 51 50 50 49 47 44 41 39 37 34 30 28 29 31 32 33 33 36 37 37 37 38 40 41 40 39 38 39 42 46 50 52 52 49 44 39 35 32
76 73 72 73 75 75 73 72 72 72 71 69 68 67 65 63 62 60 59 58 57 56 55 55 54 54 53 52 51 49 50 50 51 51 51 50 49 49 48 49 49 49 49 50 50 50 50 50 50 49 47 44 42 40 38 35 32 30 30 30 30 32 34 35 35 35 35 36 39 40 41 41 39 39 44 48 49 50 50 48 44 39 36 33 31
78 75 74 73 75 76 74 73 73 72 71 70 68 67 66 65 64 63 61 59 58 57 57 58 58 56 55 55 54 52 52 52 51 52 51 50 49 49 48 48 49 49 49 49 49 50 50 49 49 47 44 41 40 38 34 32 31 30 31 31 31 33 35 36 36 35 36 37 38 39 40 41 41 43 48 50 50 49 47 43 39 36 33 32 31
80 78 76 75 76 77 75 73 73 72 71 70 69 68 67 66 65 63 62 61 60 60 59 59 60 59 57 58 56 55 54 52 51 50 50 51 50 49 49 49 49 50 50 50 50 50 49 48 46 43 40 38 37 34 32 30 30 30 30 31 32 33 35 37 38 38 39 38 37 38 41 42 43 46 49 50 49 46 43 40 36 34 31 31 31
81 80 78 77 78 78 76 74 73 71 71 71 70 68 66 66 65 63 63 62 61 61 60 60 61 60 58 58 56 55 54 54 53 51 51 51 51 50 49 49 49 49 49 49 49 48 47 46 44 40 37 37 35 33 32 31 30 30 31 32 33 33 36 39 40 41 41 39 38 39 42 43 45 48 49 48 46 43 40 37 35 32 30 29 32
84 82 80 79 79 79 77 75 74 72 72 72 70 68 67 66 65 64 62 62 61 61 62 62 63 61 58 56 54 54 55 54 54 54 53 53 52 50 49 49 48 48 48 48 47 46 45 44 42 38 37 37 36 34 33 32 31 31 31 33 35 37 39 41 41 42 42 41 41 43 45 46 47 48 46 43 42 40 38 37 33 31 30 30 32
86 86 84 83 81 80 79 77 76 74 73 72 70 69 68 66 66 66 64 63 63 63 64 63 62 60 57 54 53 53 54 54 54 55 54 54 53 51 50 49 48 48 48 48 47 45 45 43 40 37 37 37 36 35 34 33 32 32 33 35 38 40 40 41 42 43 43 43 45 46 48 48 47 45 42 40 40 38 36 36 33 31 31 31 33
88 89 88 86 84 81 80 80 79 77 74 73 72 70 69 67 66 66 66 65 65 65 64 62 59 58 56 55 55 54 54 53 54 54 54 53 52 52 51 50 48 48 48 48 47 45 44 42 39 37 37 37 37 35 34 34 34 34 36 37 40 41 41 42 43 44 44 45 47 48 48 47 46 43 40 38 38 36 34 34 34 33 33 34 34
88 89 89 88 87 85 84 83 81 79 76 75 74 71 69 68 68 66 67 67 66 64 63 60 58 57 57 57 57 56 54 53 52 53 54 53 51 51 51 51 49 48 48 48 46 45 43 41 39 38 37 37 37 36 35 36 36 37 38 39 41 42 42 43 44 45 46 47 47 47 47 46 43 40 38 37 37 35 33 31 33 34 35 37 37
89 88 89 90 90 89 88 85 83 82 80 77 76 74 72 71 69 67 67 67 65 64 62 60 58 58 58 58 58 56 55 54 52 52 52 52 51 51 51 51 49 48 48 47 46 45 43 41 40 39 38 37 38 37 37 37 39 40 40 41 42 43 43 44 45 46 47 48 47 47 45 42 40 37 36 36 35 33 32 31 31 32 35 39 41
92 90 91 92 92 90 88 86 85 85 84 80 78 77 76 74 71 68 66 66 67 65 63 62 61 59 59 60 59 57 56 55 53 51 51 51 50 50 51 51 49 48 49 47 45 43 42 42 42 41 39 38 39 39 39 39 41 42 42 43 43 43 44 45 46 48 48 48 47 45 42 39 38 36 34 34 33 32 32 31 30 31 33 37 41
94 92 91 92 92 90 89 88 88 87 86 84 82 80 78 76 74 71 68 68 69 68 65 64 63 61 60 60 60 58 56 55 53 51 51 51 51 51 52 51 49 49 48 46 44 42 41 43 44 43 40 39 40 40 41 41 42 43 44 44 43 44 45 46 47 49 48 47 45 42 39 37 35 34 33 32 31 31 31 31 31 32 32 34 38
96 93 92 93 93 92 90 90 90 88 87 88 86 82 79 78 77 76 73 71 70 70 67 65 64 63 62 61 61 59 58 56 53 51 52 53 53 52 52 50 48 48 47 45 44 42 42 44 45 45 42 41 41 41 42 42 42 44 44 44 45 45 46 47 48 48 47 45 42 39 37 35 33 32 32 31 31 30 30 30 32 33 34 34 36
97 94 93 95 96 95 92 91 91 89 88 89 88 84 80 79 78 78 76 74 72 71 69 67 67 65 64 63 63 62 60 57 54 52 53 54 54 52 51 50 48 47 46 45 44 43 43 44 46 46 44 42 42 42 43 43 43 44 45 45 46 46 47 48 48 47 45 42 39 36 35 34 33 32 31 31 30 29 29 30 31 33 34 36 37
100 98 96 96 97 96 94 93 91 90 88 88 88 85 82 82 81 79 78 76 74 73 71 71 69 66 65 64 63 63 62 59 56 54 53 54 53 52 52 50 48 47 46 45 45 45 45 45 47 48 46 43 43 43 43 44 45 45 46 46 47 48 48 48 47 44 42 39 35 34 33 32 32 32 31 30 30 30 30 29 31 33 34 35 36
102 100 97 96 96 97 96 94 93 92 89 87 87 86 85 84 83 82 80 78 76 75 74 74 72 68 66 65 63 63 63 61 59 57 55 54 53 52 52 52 49 47 46 46 46 46 46 47 48 50 49 46 44 44 45 46 47 46 46 47 48 49 49 47 44 42 39 36 33 32 32 32 32 31 30 30 29 29 30 29 31 33 35 36 36
101 100 98 96 95 96 96 96 95 94 92 88 86 86 86 85 84 83 82 80 78 78 76 76 73 69 65 63 62 62 62 62 61 59 57 55 54 53 53 53 52 49 48 47 48 48 48 48 50 51 51 48 46 46 47 47 48 48 47 48 49 49 47 44 41 39 37 33 31 30 31 32 32 31 30 30 29 29 29 30 31 32 35 37 37
103 102 101 99 97 97 98 98 96 95 93 89 86 84 82 83 83 82 82 81 80 79 78 77 75 71 67 64 63 62 62 63 62 61 59 57 56 55 55 55 54 51 50 49 49 50 50 50 52 54 54 51 48 48 48 48 49 50 49 48 49 48 44 40 39 37 34 31 30 30 31 32 32 31 30 29 29 29 29 30 31 33 36 38 38
105 105 106 105 103 101 101 101 99 96 94 91 88 86 84 83 83 81 81 82 81 79 79 78 77 76 73 70 67 64 64 64 63 63 61 59 58 57 57 57 56 54 52 50 51 53 52 52 54 56 56 54 50 49 49 49 50 50 49 48 47 45 40 38 37 34 31 30 30 31 32 32 32 31 30 29 29 29 30 31 32 35 37 39 39
109 110 110 108 106 103 103 103 101 96 93 92 90 90 89 87 84 82 82 80 79 78 77 77 77 76 74 72 70 68 66 64 63 63 63 61 59 58 59 59 58 56 54 52 53 55 54 53 55 57 57 55 52 50 50 50 50 50 49 48 45 41 38 36 35 32 29 29 29 31 33 33 32 32 31 30 30 30 31 32 34 37 39 39 40
111 111 110 108 105 103 102 102 100 95 91 90 91 91 89 86 82 81 80 78 76 75 73 73 72 71 71 71 70 69 67 64 62 62 63 63 60 59 60 61 60 58 55 52 53 55 55 53 55 57 57 54 53 51 50 50 50 49 49 47 42 38 36 36 33 30 28 28 29 31 33 34 33 32 31 31 31 31 33 34 37 38 39 40 41
108 108 108 107 105 105 104 103 102 99 93 91 91 91 90 87 84 81 79 77 75 73 71 70 69 69 69 69 67 66 66 65 62 62 63 62 61 60 60 61 59 56 54 51 51 53 53 52 54 56 56 53 52 51 50 50 50 48 48 45 38 35 35 35 31 28 27 28 30 31 33 34 33 32 32 31 32 33 34 36 38 38 39 40 41
106 106 106 107 107 108 107 106 105 103 98 93 92 92 92 90 89 85 81 79 77 73 71 70 71 70 68 69 70 67 64 62 59 60 61 61 59 58 58 57 55 53 51 49 48 50 50 50 52 55 54 52 51 51 50 50 48 47 46 42 35 33 35 33 30 28 28 29 30 31 33 34 33 32 32 32 33 34 35 36 36 37 39 41 42
105 105 104 106 109 110 109 108 106 104 100 95 92 92 92 90 88 86 83 80 78 75 72 71 72 71 66 65 68 67 64 62 60 60 60 59 57 55 54 53 51 50 49 47 46 47 48 48 50 53 52 50 50 49 49 49 48 46 44 38 33 33 34 31 29 28 29 30 31 31 33 34 33 32 32 32 33 34 34 35 36 37 40 42 42
104 103 103 105 108 109 108 108 106 104 101 97 93 92 92 91 88 86 84 81 78 76 74 72 72 72 68 63 62 62 63 63 62 62 62 58 56 54 53 51 49 48 48 47 45 45 46 45 48 51 51 49 48 47 47 47 47 45 41 36 33 34 34 31 29 29 30 30 31 32 33 34 32 32 33 33 34 34 34 35 37 39 41 41 42
103 102 102 104 106 107 107 107 106 105 102 99 96 94 92 92 90 87 84 81 78 77 75 73 72 70 69 66 62 62 63 62 60 61 61 58 55 54 53 50 48 48 48 48 46 45 45 44 46 50 50 48 46 46 46 47 48 44 39 34 33 34 33 31 30 30 30 31 31 33 34 34 32 33 34 34 35 34 34 35 37 39 40 42 45
101 102 103 104 106 107 106 106 105 104 102 100 97 95 93 92 91 88 84 80 78 76 75 74 73 71 69 68 67 66 67 64 59 56 55 54 53 54 53 50 49 49 49 48 47 45 44 44 45 48 49 48 46 45 46 47 48 43 37 34 34 34 32 31 31 31 31 31 32 33 35 34 33 34 35 35 34 34 34 36 37 39 42 44 44
99 103 103 104 105 106 105 103 103 102 101 100 99 97 95 93 92 89 85 81 78 76 75 73 73 72 72 71 70 69 67 65 61 56 52 50 51 51 51 49 48 49 49 48 46 44 43 43 45 46 48 47 46 45 46 48 47 42 36 35 35 33 32 32 31 31 31 31 32 34 35 35 34 35 35 35 34 33 34 36 38 41 42 42 40
97 100 100 100 101 103 102 101 101 101 100 100 100 99 96 94 92 90 86 82 78 76 75 73 70 70 70 69 68 67 65 62 60 57 52 50 49 49 48 48 47 48 48 46 43 42 42 43 44 45 46 47 46 46 46 47 47 40 36 36 35 33 32 32 31 31 31 31 32 34 35 35 35 35 35 34 34 35 35 36 39 41 40 38 38
89 95 97 98 98 99 100 101 100 100 100 100 99 98 97 95 93 90 87 84 81 77 74 71 69 67 66 65 65 64 61 58 56 55 52 51 50 49 47 47 46 47 47 44 40 40 42 43 44 44 45 46 46 46 47 47 45 39 36 37 35 33 33 32 32 32 31 31 32 34 35 35 35 36 36 35 36 36 36 37 39 40 38 37 39
80 88 95 98 98 98 100 100 100 99 99 98 97 97 96 95 93 92 89 86 83 78 74 71 68 66 64 63 63 61 58 55 55 53 51 51 51 50 49 48 47 48 47 42 39 40 42 43 43 43 44 44 45 46 47 46 44 39 36 37 35 33 33 33 33 33 31 32 33 34 34 34 35 37 38 37 37 38 37 37 39 39 39 39 41
73 80 88 94 96 97 97 97 97 97 97 95 94 94 94 94 94 93 91 87 84 79 75 71 69 66 63 62 61 59 55 54 54 53 53 53 52 51 51 50 50 50 48 42 39 41 44 44 43 43 42 42 44 46 47 45 43 38 36 37 36 33 33 33 34 33 32 33 34 34 34 35 36 37 38 38 38 38 38 38 38 39 40 40 41
68 72 79 85 90 92 92 92 93 94 94 94 93 93 93 93 94 93 91 88 85 81 76 73 70 67 65 63 61 57 54 53 54 55 55 54 53 52 53 53 53 52 50 45 42 43 45 45 44 43 41 41 44 47 46 45 43 39 37 38 36 34 33 33 34 34 33 34 36 35 35 36 37 38 38 38 38 38 39 38 37 38 40 41 42
61 66 71 77 84 88 89 88 88 90 91 92 92 91 91 91 92 93 92 89 86 83 78 74 70 67 65 64 62 58 54 52 53 55 55 53 53 53 55 55 55 55 54 48 44 44 47 47 46 44 41 41 46 47 45 45 43 39 38 38 37 35 34 33 35 35 33 35 36 36 37 38 39 40 39 37 37 38 38 38 37 39 42 44 44
53 59 65 71 76 82 84 84 86 88 90 91 91 90 89 89 90 91 91 89 87 85 80 75 70 67 66 65 64 60 54 51 52 56 56 55 55 55 57 58 57 57 57 52 47 47 50 50 49 45 42 43 47 48 45 45 44 40 38 38 38 37 35 35 36 35 34 35 37 38 39 40 41 42 39 36 36 37 36 37 38 41 44 46 46
45 51 58 64 68 73 78 81 84 87 89 90 90 90 88 87 87 88 89 89 87 85 81 77 72 69 67 67 65 61 56 51 52 56 57 57 58 58 59 61 60 60 59 56 52 51 52 52 51 47 44 44 48 48 46 45 45 41 39 38 38 38 37 37 38 36 35 36 38 40 41 41 43 44 39 34 35 36 35 36 38 40 44 46 47
39 44 51 58 61 64 69 75 81 85 86 87 88 87 86 86 86 86 86 86 85 83 81 79 75 71 69 67 64 61 56 53 55 58 60 61 62 61 62 63 62 62 61 59 55 54 54 55 53 50 46 45 49 50 47 46 46 42 39 39 40 39 38 39 39 37 35 36 39 42 42 42 45 45 39 34 36 35 35 39 41 42 44 46 47
34 39 45 51 55 57 61 69 76 80 83 83 83 82 83 85 85 84 83 82 82 81 80 79 77 73 70 67 64 61 56 54 56 59 60 62 63 62 62 63 64 64 64 62 58 56 57 57 56 53 49 47 50 51 49 47 46 43 41 41 40 39 39 40 40 38 36 37 40 42 43 42 43 42 38 36 37 37 39 44 46 45 44 43 43
30 35 39 45 50 53 58 64 70 76 79 80 79 79 81 83 83 82 81 80 80 79 77 75 74 73 71 68 64 61 57 54 53 53 54 59 64 65 63 64 66 67 67 65 62 60 60 60 59 56 52 49 52 53 50 48 46 44 43 42 41 40 40 41 41 38 37 38 39 41 41 38 36 38 39 40 41 41 43 46 46 44 42 41 41
27 31 36 41 45 50 54 59 65 71 75 76 76 76 78 80 82 81 79 78 76 75 74 71 68 69 70 67 60 54 52 53 51 49 51 57 63 66 66 66 69 71 70 67 64 63 63 62 61 59 54 51 53 55 53 50 47 45 44 42 41 41 42 42 41 39 39 38 37 39 40 37 35 40 43 43 44 44 45 47 47 44 42 43 44
25 28 32 37 42 47 52 55 59 64 69 72 74 74 75 76 78 79 78 76 74 73 72 69 67 66 65 62 56 48 46 49 49 48 51 56 60 65 68 70 74 76 74 70 67 66 66 65 63 62 57 53 54 57 55 51 48 46 44 43 43 44 44 43 42 41 40 39 37 41 43 40 39 42 44 44 45 46 45 47 47 45 45 47 50
23 25 29 34 39 44 48 50 54 58 63 68 71 73 73 75 76 77 77 74 72 70 67 65 65 65 63 62 59 51 45 48 50 50 52 57 62 67 71 73 75 74 71 70 69 68 68 67 66 65 60 54 55 58 56 52 50 47 45 45 45 45 45 46 44 43 42 40 40 44 45 42 42 43 44 45 47 46 46 47 47 47 49 52 53
20 22 27 32 37 42 46 48 52 55 59 64 67 69 72 74 76 76 73 71 69 67 63 61 61 62 63 65 63 56 49 48 49 51 53 57 62 67 71 73 72 70 67 67 68 69 69 68 67 67 62 56 57 60 58 54 51 49 47 46 46 46 48 48 46 45 44 42 43 46 46 45 44 44 43 45 46 46 46 48 48 49 52 54 55
15 18 23 29 34 39 42 46 49 52 55 60 64 67 71 73 74 71 66 64 65 64 60 58 56 56 59 62 61 59 55 47 41 43 50 56 59 64 70 73 71 68 66 67 68 69 70 69 68 68 63 58 58 61 59 55 52 50 48 47 47 48 49 48 48 47 45 43 43 46 47 46 45 46 46 46 45 46 48 50 51 53 55 55 54
14 16 19 24 30 35 39 42 45 48 50 55 62 66 69 70 70 67 60 58 62 63 61 58 55 51 51 52 55 57 57 48 38 37 44 49 50 52 58 61 61 61 61 63 65 67 69 69 69 68 65 60 59 61 61 57 53 52 50 48 48 49 50 49 49 48 46 45 45 46 47 47 46 47 48 46 45 46 49 52 54 55 56 55 52
13 14 15 19 25 31 35 38 40 40 42 48 55 61 65 67 68 67 63 59 58 60 62 62 58 51 47 48 51 52 49 43 41 42 45 49 49 47 47 48 50 53 54 56 59 64 67 68 69 70 68 62 60 62 63 58 54 54 52 49 49 51 51 50 49 48 48 47 46 47 49 49 47 46 47 46 46 47 49 52 53 55 55 54 54
11 14 15 16 20 25 31 34 36 36 39 44 50 55 61 65 67 67 66 62 55 53 59 64 59 53 51 49 48 49 47 43 46 48 49 53 53 51 48 47 47 50 52 53 54 59 65 67 68 69 67 64 62 64 64 60 56 54 53 51 52 53 52 50 49 49 49 47 47 50 51 50 47 47 48 49 49 49 51 53 54 54 55 56 57
10 13 16 17 19 21 25 28 31 34 38 40 44 49 55 62 66 68 70 69 59 52 58 64 60 56 56 51 48 51 53 51 52 54 55 57 56 53 52 52 51 50 50 51 53 56 60 63 65 66 66 65 65 66 63 59 56 55 54 54 54 53 52 50 50 49 48 48 48 48 48 49 49 50 50 51 50 51 54 55 54 56 58 58 58
15 14 14 17 19 19 21 24 26 28 30 31 33 38 46 57 65 68 71 73 64 54 58 65 63 60 59 54 51 54 56 54 54 56 57 59 59 55 53 55 57 55 51 51 53 55 57 58 60 63 65 66 66 65 63 60 58 56 56 56 56 55 53 51 50 49 48 48 48 46 46 49 53 54 54 52 52 54 57 56 56 58 60 59 58
Wind_Direction
223 227 226 225 227 228 229 232 235 236 236 237 240 241 242 245 249 248 245 246 249 250 250 249 249 250 250 252 254 255 255 256 257 259 261 263 264 265 266 267 268 269 271 273 275 278 280 282 284 287 289 291 292 293 292 293 292 288 287 287 284 286 289 291 294 296 296 297 301 306 309 309 308 310 312 312 311 310 313 317 320 320 321 323 324
222 226 229 227 227 228 229 231 234 235 236 237 240 241 244 246 249 249 246 245 247 247 248 249 249 248 246 247 250 252 254 255 257 259 260 262 263 264 265 267 268 270 271 272 275 277 279 281 284 286 289 290 291 291 290 291 291 287 283 282 282 285 288 291 295 297 298 300 303 308 310 308 307 311 312 311 311 312 315 318 319 319 321 323 322
223 223 229 230 228 228 229 231 232 233 235 236 238 241 244 245 246 247 247 247 245 244 245 246 246 246 244 244 247 249 252 254 256 259 260 261 262 263 264 266 268 269 271 272 274 276 278 281 284 286 288 289 290 290 289 289 288 285 282 281 282 285 287 290 294 297 299 301 305 310 310 307 306 309 311 311 313 314 315 316 318 319 320 321 320
225 222 226 231 231 230 229 230 231 232 234 235 237 239 242 243 244 245 246 245 243 242 242 242 243 244 245 245 245 246 249 252 255 258 261 262 262 263 264 266 267 269 270 272 274 276 278 281 284 287 288 288 289 289 288 287 286 285 285 284 284 285 287 290 294 297 298 301 306 309 308 304 302 307 312 312 313 314 315 316 318 318 319 319 317
228 224 223 228 232 231 229 230 231 232 234 235 236 237 239 240 241 243 244 242 239 239 240 242 243 243 245 246 245 245 248 251 255 258 261 262 262 263 264 265 267 268 270 272 273 276 278 281 284 285 286 287 288 287 286 285 285 286 286 286 286 286 289 293 296 296 298 302 306 308 307 301 299 305 311 311 312 314 315 317 318 318 318 316 315
231 228 225 226 231 232 230 230 230 231 233 234 234 235 235 237 238 240 242 240 237 238 239 242 244 244 244 246 248 248 248 249 252 256 259 261 262 263 264 265 267 268 270 272 274 276 279 282 283 283 284 286 287 287 286 286 287 287 286 286 286 288 291 295 296 297 300 302 304 306 304 300 299 304 308 309 312 315 316 316 317 316 315 313 316
232 231 229 227 229 232 232 231 231 231 232 234 234 233 233 235 236 238 240 239 238 239 239 240 244 246 245 246 249 250 251 251 252 254 257 259 261 263 264 265 267 269 271 273 275 277 280 282 282 282 284 286 287 288 288 289 289 287 286 285 286 290 293 295 296 298 301 302 303 305 304 301 300 302 306 309 314 316 315 315 315 313 310 310 316
233 233 231 230 230 232 232 231 231 231 232 234 235 235 234 235 235 236 237 238 239 239 240 240 242 246 247 247 249 250 252 253 253 255 256 258 260 262 263 265 267 269 271 273 275 278 280 281 281 282 284 286 287 289 289 289 289 287 286 286 289 292 294 296 297 299 301 303 305 306 306 304 302 303 307 311 314 316 313 312 312 309 305 305 311
232 233 232 232 231 231 233 233 231 231 232 233 234 234 234 233 234 236 238 239 240 240 241 241 243 246 249 249 249 249 250 251 253 255 256 258 260 261 263 265 267 269 271 273 276 278 279 280 281 282 284 286 288 289 289 289 288 287 286 288 292 294 295 297 298 300 302 304 306 307 307 306 305 306 309 312 314 314 312 309 309 307 304 303 306
231 232 232 232 232 231 232 234 233 231 230 232 233 232 232 232 233 236 239 240 240 242 243 244 245 247 248 250 250 249 248 249 251 253 255 258 260 262 263 265 266 269 271 273 275 277 278 279 281 282 284 286 288 288 289 288 287 287 288 291 293 294 296 297 299 300 302 304 305 306 306 305 305 306 310 313 312 311 309 307 308 307 305 304 306
230 232 233 233 232 232 231 232 234 233 231 231 232 233 233 234 233 235 238 239 240 241 243 246 248 248 248 248 250 250 249 249 250 252 255 257 259 261 263 264 266 268 271 273 275 276 277 278 280 282 284 286 287 287 287 286 286 287 289 292 293 295 297 298 299 301 302 304 305 306 305 304 304 306 310 311 309 308 307 306 306 306 305 305 307
229 230 233 233 232 232 231 232 233 234 233 231 232 233 233 234 235 234 235 238 240 241 243 247 249 249 248 248 249 250 251 251 250 252 254 257 259 260 261 263 265 268 272 273 274 275 276 278 280 281 283 285 286 286 286 286 286 288 290 292 294 295 297 298 300 301 303 304 305 305 304 303 302 304 308 308 307 305 305 306 306 306 306 306 308
229 228 231 233 233 233 233 232 232 234 234 232 231 232 233 233 234 233 232 236 240 241 243 246 248 249 248 247 248 250 250 251 251 252 253 254 256 258 260 262 263 267 271 272 273 274 276 278 279 280 282 284 285 285 286 286 287 289 291 293 294 295 297 299 300 302 304 304 304 304 303 302 301 302 304 304 305 304 305 308 308 308 308 307 309
230 228 229 233 234 234 233 233 232 232 234 234 232 231 232 232 233 233 234 236 239 241 243 244 247 248 247 247 248 249 250 251 252 252 253 252 253 255 258 261 263 266 269 271 272 273 275 277 278 279 281 283 284 285 286 287 288 290 291 292 294 295 297 300 301 303 304 303 303 303 302 300 301 302 302 303 304 304 306 309 310 311 311 309 310
231 229 228 231 233 234 233 233 232 232 233 234 234 232 233 233 233 234 236 236 237 240 242 244 246 247 248 249 250 251 251 252 252 253 254 254 254 255 257 260 262 265 267 269 271 273 275 277 278 279 280 282 283 284 285 286 288 290 291 292 294 296 298 300 302 303 303 302 302 303 301 301 303 303 303 304 304 304 307 309 310 310 311 311 312
232 230 228 229 232 233 233 233 233 232 232 234 235 234 233 234 235 235 237 237 236 237 239 242 243 245 249 250 250 252 253 253 252 252 253 254 256 257 259 260 262 264 266 268 271 273 275 276 278 279 280 281 282 283 285 286 287 289 290 292 294 296 299 300 303 303 301 300 301 301 301 302 303 303 303 304 303 304 307 309 310 309 310 312 314
232 231 229 228 231 232 233 233 234 234 233 233 235 235 233 234 235 235 236 237 237 237 238 240 241 244 249 250 249 250 254 255 254 253 252 253 256 258 261 261 262 263 265 269 271 273 274 275 276 278 279 280 281 282 284 285 286 288 289 292 294 296 299 301 303 302 299 299 300 299 299 300 301 302 303 303 303 305 307 309 310 310 312 316 317
231 232 231 230 231 233 233 233 234 235 234 233 234 236 234 233 234 235 235 236 237 238 238 239 242 245 249 249 248 248 251 254 255 256 255 255 256 258 260 262 262 263 266 269 270 272 273 274 275 277 278 279 280 281 283 284 286 287 289 291 294 296 299 302 302 299 297 298 297 296 298 299 300 301 301 301 301 304 307 310 311 311 314 318 320
230 232 233 232 232 233 234 234 233 235 235 234 234 236 236 235 234 235 235 236 236 238 238 240 242 244 246 249 248 248 250 252 254 256 257 257 258 259 260 261 262 263 265 268 270 271 272 273 275 276 278 279 280 281 282 284 285 287 289 291 293 296 299 302 299 295 296 296 294 295 297 297 299 300 300 300 301 304 307 309 312 314 317 319 321
229 230 231 231 230 231 233 234 233 234 236 235 233 235 237 236 234 234 235 236 236 237 238 240 241 242 244 248 251 252 252 253 253 254 256 257 258 260 261 262 263 264 265 267 270 271 272 273 274 276 277 279 280 281 281 283 285 287 289 291 293 296 300 299 295 293 294 294 292 294 295 296 299 300 299 299 300 303 307 309 312 316 319 321 322
228 228 229 229 228 228 230 232 232 231 233 235 234 234 235 236 235 234 234 235 235 236 237 240 241 242 244 247 250 252 253 253 252 253 255 256 257 259 260 262 264 265 266 267 269 271 272 272 273 275 277 278 279 279 280 282 284 286 289 291 293 296 298 295 291 292 292 290 292 295 295 297 300 300 298 298 299 302 305 308 311 316 318 321 322
227 227 228 228 228 228 228 231 232 230 230 232 234 233 235 237 237 235 234 235 235 236 238 240 242 244 246 248 249 251 252 252 252 253 254 255 257 258 260 262 264 265 267 268 269 270 271 271 272 274 276 277 278 278 279 281 283 285 289 290 293 296 295 291 289 290 289 289 292 294 296 298 300 299 297 297 298 302 304 306 311 315 318 320 322
226 226 227 228 229 229 230 231 233 233 231 231 233 234 235 236 237 236 235 235 235 236 237 240 243 246 248 248 249 250 251 253 254 254 255 256 257 258 259 262 264 266 267 268 268 269 270 270 271 273 275 276 277 277 279 280 282 286 288 289 292 295 291 288 288 287 287 289 292 294 296 299 300 299 297 297 299 303 305 308 311 315 317 320 322
225 226 227 228 228 229 229 230 232 232 230 229 231 234 234 235 236 236 235 235 235 235 236 237 240 245 248 249 249 250 251 253 255 255 255 256 256 257 259 261 264 266 267 267 267 267 268 269 269 271 273 275 276 277 278 279 282 285 286 287 292 291 286 286 285 283 285 289 292 295 298 300 301 300 298 298 300 303 306 309 313 316 318 321 322
225 225 226 227 227 228 229 229 230 231 229 227 227 231 232 233 234 235 234 234 234 234 233 233 234 239 245 248 248 248 249 251 254 255 255 255 256 257 258 260 263 265 265 265 265 266 267 267 267 269 271 273 274 276 277 279 281 283 283 287 290 286 282 283 281 281 284 288 292 296 298 299 300 300 299 297 299 303 307 311 314 317 320 321 321
225 225 225 226 227 227 228 229 229 230 230 228 227 229 232 233 233 234 233 233 233 233 232 232 232 233 237 242 245 246 246 249 251 254 255 255 256 257 258 260 262 263 264 264 264 264 265 266 265 267 270 272 273 274 276 278 279 280 282 287 287 281 279 278 277 279 284 288 292 295 296 297 298 298 297 297 299 304 309 312 315 318 320 320 320
226 225 224 225 227 227 228 228 229 230 230 229 227 228 230 233 233 233 233 233 232 233 233 233 234 233 232 236 242 244 246 249 251 252 253 254 256 257 258 259 261 262 263 263 263 263 264 264 265 266 269 271 272 273 275 276 277 278 282 285 282 277 276 274 273 278 283 288 291 293 293 294 296 297 296 297 300 305 309 312 317 319 319 319 319
226 226 225 225 226 227 228 228 228 229 229 229 228 227 229 231 233 233 233 232 232 232 232 232 233 234 234 236 240 245 248 250 251 251 252 253 255 257 258 259 260 261 262 262 262 262 263 264 264 265 268 270 271 272 273 274 275 277 281 281 276 273 273 272 273 278 284 288 291 292 292 293 295 295 296 298 303 307 311 315 319 320 318 318 320
225 225 225 225 226 227 227 227 228 228 229 229 229 229 228 230 232 233 233 232 232 232 232 231 231 233 235 237 241 245 248 249 250 251 253 253 254 255 257 259 260 260 261 262 262 262 263 263 262 264 266 268 269 270 271 272 274 277 279 276 271 269 269 269 273 279 284 288 292 293 293 293 294 296 298 302 306 309 313 317 319 319 318 318 320
226 226 226 225 225 227 227 227 228 228 229 229 229 229 229 229 231 233 233 232 232 232 233 232 231 233 236 239 242 244 246 247 248 250 253 254 255 255 256 258 259 259 260 261 262 263 262 262 261 262 264 267 267 267 268 270 273 276 276 271 268 267 267 268 273 279 283 288 293 295 295 294 294 295 299 303 307 311 314 316 317 318 319 320 320
225 227 228 227 227 227 228 228 228 228 228 229 229 229 229 230 231 233 233 233 232 232 232 233 233 234 236 238 240 242 243 245 246 248 252 255 256 257 257 257 258 258 259 261 262 262 262 261 261 262 264 265 266 266 267 269 272 274 271 267 267 266 265 268 273 278 282 288 293 297 298 297 295 294 298 302 306 310 311 312 315 318 320 321 321
225 225 227 228 228 228 228 228 228 228 228 228 229 229 229 230 231 232 233 234 234 232 232 233 234 234 235 237 239 241 242 243 245 248 251 253 256 259 259 258 258 258 259 260 260 261 261 261 262 263 264 266 266 266 267 269 271 272 268 265 265 264 264 268 273 276 281 287 293 297 299 299 297 295 297 301 304 306 307 310 314 317 319 320 321
228 225 224 226 227 227 227 228 228 228 229 229 229 229 229 230 230 232 233 234 234 234 233 233 234 235 235 236 239 240 242 243 245 248 250 253 257 260 260 258 257 257 258 259 259 259 260 261 263 265 266 268 267 266 267 269 271 270 265 263 263 262 263 268 272 276 281 286 291 296 299 300 300 298 297 299 301 303 305 308 311 313 316 318 320
230 228 226 225 226 227 227 227 228 228 229 229 229 229 229 229 230 231 233 233 234 234 234 233 234 236 236 236 238 240 241 243 245 247 251 255 257 258 258 258 257 257 258 257 257 258 260 262 264 266 268 269 267 266 268 270 271 268 263 262 262 260 262 267 271 276 280 285 290 294 297 300 301 300 299 298 299 300 303 305 307 309 312 315 320
229 229 229 228 227 228 229 228 228 228 229 229 229 229 229 229 230 231 232 233 233 234 234 233 232 234 236 237 238 240 241 243 245 246 250 255 257 256 255 256 256 257 258 256 255 258 260 262 263 265 267 267 265 267 270 271 271 268 262 261 261 260 262 266 271 276 280 285 290 293 296 299 302 303 302 299 298 299 301 302 303 305 308 312 318
230 227 227 227 227 228 228 228 228 229 229 229 229 229 229 228 229 231 232 232 233 233 233 232 232 232 234 237 238 239 239 240 243 245 247 253 257 256 254 255 256 257 258 257 256 257 259 261 262 264 267 267 266 269 272 272 271 267 262 261 261 261 262 266 271 276 280 285 290 294 296 298 301 303 303 301 299 299 300 300 302 304 306 309 313
231 228 226 226 226 227 227 227 226 227 228 229 229 229 229 228 229 230 231 232 232 233 233 232 231 231 232 234 237 238 238 237 241 245 248 252 256 256 254 254 255 256 258 258 257 256 258 260 263 265 266 266 267 270 272 271 270 267 262 261 262 262 263 266 270 274 280 286 290 294 295 298 301 303 303 302 300 299 300 301 303 305 306 308 311
230 229 228 227 226 225 226 225 225 225 226 227 227 228 228 228 229 229 230 231 232 232 232 232 231 230 230 232 234 236 236 235 238 243 247 250 255 258 256 254 255 256 258 259 258 258 259 261 263 264 265 266 267 269 271 271 270 268 263 261 263 263 264 267 271 275 281 286 289 292 295 299 301 301 302 301 297 297 301 305 307 309 308 309 311
226 225 226 227 227 226 225 224 224 225 225 226 226 226 226 227 228 229 230 231 231 231 231 232 231 230 230 231 233 234 234 233 234 239 245 250 255 257 256 254 255 256 258 259 259 259 260 262 263 263 264 265 266 268 269 270 270 269 265 262 263 264 265 268 272 276 281 286 289 293 297 300 300 299 298 296 294 298 306 310 311 313 311 310 311
225 223 223 225 227 227 226 225 225 224 225 226 226 226 225 225 226 228 229 230 231 231 230 230 230 229 229 230 232 233 233 232 234 239 244 249 252 256 257 256 256 257 258 260 260 260 260 261 262 263 263 264 265 267 268 269 269 269 266 263 263 265 266 269 273 277 282 287 291 295 298 300 301 299 297 296 298 305 311 312 312 314 312 309 308
224 222 221 221 223 222 223 225 225 224 224 225 226 226 225 225 225 227 228 229 230 230 230 229 229 229 228 228 230 231 231 232 234 239 245 250 254 257 259 258 257 257 258 259 259 259 259 261 262 262 262 263 264 266 267 268 269 269 266 265 265 265 266 269 273 278 283 287 292 296 299 302 304 303 302 303 304 307 310 311 312 313 312 309 308
223 220 218 218 219 220 221 221 222 222 223 223 224 225 226 225 225 226 227 228 229 229 229 229 228 229 229 229 230 230 229 228 229 233 242 251 257 259 259 259 259 258 258 258 258 258 258 260 261 261 261 261 263 264 266 266 268 268 266 266 266 265 266 270 274 278 282 285 290 294 297 301 304 304 303 304 305 305 306 309 311 310 310 309 309
218 218 218 216 216 219 222 221 221 220 221 221 222 223 225 225 225 225 226 227 227 228 228 227 226 226 226 226 225 225 227 228 226 225 232 242 250 256 259 260 260 259 258 257 257 257 258 258 259 260 260 260 261 263 264 265 267 267 265 264 265 266 267 270 273 277 280 283 288 292 294 297 300 301 302 303 304 303 305 308 308 308 309 310 310
211 212 217 218 217 218 220 222 222 221 221 220 219 221 223 224 225 226 226 226 227 228 228 226 225 224 221 219 219 221 226 232 232 228 230 238 246 252 256 259 260 260 259 257 256 257 257 257 257 259 259 258 260 261 263 265 266 265 263 263 264 266 267 270 273 276 279 283 287 289 292 294 296 298 300 301 303 303 304 304 304 305 308 310 310
217 212 215 218 219 218 218 219 221 221 221 220 218 219 220 221 224 225 226 226 227 227 228 227 224 222 219 217 218 217 218 226 234 233 232 236 243 248 252 256 261 262 261 259 256 255 255 255 256 257 258 257 258 260 262 264 264 263 262 262 263 265 267 269 273 275 278 283 286 289 292 294 295 297 298 298 301 304 304 301 301 303 306 308 309
227 224 222 222 222 220 217 217 219 220 221 221 219 218 218 219 223 224 225 228 229 227 227 225 220 218 219 218 217 214 213 217 229 234 233 235 241 248 253 259 264 265 264 261 258 255 254 254 255 256 257 255 256 259 261 262 262 262 261 261 262 264 265 268 272 275 278 282 286 289 291 291 293 295 295 295 301 305 303 301 301 301 304 307 309
215 218 223 225 225 222 219 217 217 218 220 221 221 219 218 219 222 221 220 227 230 228 227 222 216 214 214 211 208 208 209 211 216 223 230 236 244 255 263 265 266 267 265 262 259 255 254 253 253 255 255 254 254 257 260 260 261 261 260 261 261 262 264 267 271 274 277 281 284 287 288 289 290 291 290 293 300 303 302 301 301 301 303 306 308
207 205 210 219 222 220 219 218 217 217 221 222 221 220 219 219 221 218 215 218 225 227 224 217 212 208 202 197 199 200 203 210 216 216 222 234 247 261 268 266 266 268 266 263 259 255 253 252 252 253 254 253 254 256 258 259 260 260 261 261 261 262 264 267 270 274 277 280 283 285 286 287 289 287 287 291 297 300 301 302 303 303 303 303 305
204 203 203 209 213 214 214 214 213 214 218 219 219 219 218 219 220 219 215 214 219 223 218 211 207 203 195 192 197 198 199 210 219 218 221 233 247 260 266 265 267 270 267 265 263 258 254 253 253 254 255 254 253 254 256 258 260 261 261 261 260 262 265 268 271 274 276 279 284 286 285 287 288 286 287 291 293 295 300 302 303 303 301 301 304
184 198 201 202 204 206 207 206 206 209 214 216 216 215 216 217 218 218 215 214 218 221 215 206 200 197 192 189 193 198 200 206 213 216 220 228 238 251 258 261 265 269 268 267 267 263 259 257 255 256 256 254 253 254 257 258 260 260 259 260 261 262 265 268 271 274 276 280 285 284 281 282 284 286 288 290 289 293 299 302 301 301 301 303 306
147 160 179 190 193 192 191 192 196 202 207 209 211 213 215 217 217 218 217 218 219 219 211 202 195 192 191 189 190 197 202 205 209 213 216 221 229 238 244 249 256 262 266 268 268 265 263 261 258 258 257 255 255 255 256 257 258 259 259 260 261 263 265 268 271 274 277 280 281 278 273 274 278 282 284 286 286 292 298 301 301 301 302 303 304